sat.trackr.live / text

‹ back to catalog

STARLINK-3892

NORAD 52488 · 2022-049AP

PAYLOAD ACTIVE UNKNOWN

§ Identity

Operator
Country
US
Launch date
2022-05-06
Launch site
AFETR
Launch vehicle
Mass (kg)
RCS (m²)

Purposes: comms

External: N2YO · Heavens-Above · Gunter

§ Orbital elements

Epoch: 2026-05-25T04:29:17.680416Z

Period
95.44 min
Inclination
53.2135°
Eccentricity
0.0001418
Mean motion
15.08839406 rev/d
Perigee alt
538.8 km
Apogee alt
540.7 km
Semi-major
6,917.9 km
B*
5.2323e-5
RAAN
75.7091°
Arg perigee
78.2348°
Mean anomaly
281.8803°
Rev number
22,380

§ Raw data

STARLINK-38921 52488U 22049AP  26145.18701019  .00000545  00000+0  52323-4 0  99912 52488  53.2135  75.7091 0001418  78.2348 281.8803 15.08839406223802

JSON: /api/v1/satellites/52488 · /tle

For live sub-satellite position, see the globe view (requires WebGL).

§ Visibility from observer

Set your observer location to see the next 7 days of passes ≥ 10°. The values pass through the URL so the page stays shareable.

No JS? Fill the form by hand. The geolocation button needs JavaScript.